SHIJIAN-6 02B (SJ-6 02B)

Last updated on Fri Sep 11 2026 00:03:31 GMT+0000 (Coordinated Universal Time)

1 29506U 06046B 26253.51735243 .00000468 00000+0 40800-4 0 9999 2 29506 97.7005 281.9989 0016055 138.8043 221.4396 15.01476331 83540
UTC large
Height (km)
Speed (km/s)
/
Latitude / Longitude
Inclination (degrees)
Orbital Period (minutes)
Azimuth
Elevation
Range (km)
Doppler Factor

Next 0 passes for location: London (51.5072 / 0.1276)

No passes found over London.
SHIJIAN-6 02B (SJ-6 02B)